Tracking 23758 objects as of 27-Oct-2021
HD Live streaming from Space Station
objects crossing your sky now

IRIDIUM 33 DEB

Track IRIDIUM 33 DEB now!
10-day predictions


NORAD ID: 33869
Int'l Code: 1997-051AN
Perigee: 693.1 km
Apogee: 801.7 km
Inclination: 86.4 °
Period: 99.6 minutes
Semi major axis: 7118 km
RCS: 0.08 m2 (small)
Launch date: September 14, 1997
Source: United States (US)
Launch site: TYURATAM MISSILE AND SPACE COMPLEX (TTMTR)

Note: This is SATELLITE DEBRIS
aabbcc
Your satellite tracking list
Your tracking list is empty




NASA's NSSDC Master Catalog

Two Line Element Set (TLE):
1 33869U 97051AN  21299.60008902  .00005025  00000-0  13687-2 0  9998
2 33869  86.3520 340.0041 0076280 156.6367 203.8332 14.45531501663133
Source of the keplerian elements: AFSPC